This is the latest recevied weather packets stored in our database for station/object WR7DW-3. If no packets are shown the sender has not sent any weather packets the latest 10 day(s).
| Time | Temp. | Humidity | Pressure | Rain* | Wind** | Luminosity | Snow |
|---|---|---|---|---|---|---|---|
| 1778059777 | -1.11° C | 64% | 1012.4 hPa | 0 mm | - | - | - |
| 1778058877 | -1.11° C | 64% | 1012.5 hPa | 0 mm | - | - | - |
| 1778057077 | -0.56° C | 63% | 1012.3 hPa | 0 mm | - | - | - |
| 1778056177 | -1.11° C | 63% | 1012.4 hPa | 0 mm | - | - | - |
| 1778055277 | -0.56° C | 62% | 1012.4 hPa | 0 mm | - | - | - |
| 1778054377 | -1.11° C | 63% | 1012.6 hPa | 0 mm | - | - | - |
| 1778053477 | -1.11° C | 65% | 1012.8 hPa | 0 mm | - | - | - |
| 1778052577 | -1.11° C | 64% | 1013.1 hPa | 0 mm | - | - | - |
| 1778051677 | -1.11° C | 63% | 1013.1 hPa | 0 mm | - | - | - |
| 1778050777 | -1.11° C | 64% | 1013.1 hPa | 0 mm | - | - | - |
| 1778049877 | -1.11° C | 65% | 1013.1 hPa | 0 mm | - | - | - |
| 1778048977 | -1.11° C | 65% | 1013 hPa | 0 mm | - | - | - |
| 1778048077 | -1.11° C | 65% | 1012.8 hPa | 0 mm | - | - | - |
| 1778047177 | -1.67° C | 67% | 1012.8 hPa | 0 mm | - | - | - |
| 1778046277 | -1.67° C | 68% | 1012.7 hPa | 0 mm | - | - | - |
| 1778045377 | -1.67° C | 67% | 1012.8 hPa | 0 mm | - | - | - |
| 1778044477 | -1.67° C | 68% | 1012.8 hPa | 0 mm | - | - | - |
| 1778043577 | -1.67° C | 71% | 1012.8 hPa | 0 mm | - | - | - |
| 1778042677 | -2.22° C | 73% | 1012.8 hPa | 0 mm | - | - | - |
| 1778041778 | -1.67° C | 72% | 1012.8 hPa | 0 mm | - | - | - |
| 1778040877 | -2.22° C | 72% | 1012.7 hPa | 0 mm | - | - | - |
| 1778039977 | -1.67° C | 73% | 1012.8 hPa | 0 mm | - | - | - |
| 1778038178 | -1.67° C | 73% | 1012.6 hPa | 0 mm | - | - | - |
| 1778037277 | -1.67° C | 72% | 1012.3 hPa | 0 mm | - | - | - |
| 1778036378 | -1.11° C | 72% | 1012.2 hPa | 0 mm | - | - | - |
* Rain latest hour (hover to see other rain measurements)
** Current wind speed in m/s (hover to see current wind gust speed)